Wind_Speed
45 45 45 44 43 42 43 43 44 44 44 44 43 42 40 40 39 39 39 38 38 38 38 39 39 40 40 40 39 40 40 39 38 38 37 37 37 36 37 36 37 37 38
45 46 46 45 44 43 43 43 44 44 44 44 44 43 42 41 41 40 40 40 40 39 40 42 42 41 42 42 41 41 40 39 39 39 38 38 38 38 38 38 38 38 38
45 45 46 46 45 45 44 43 44 45 45 45 44 44 43 43 42 41 41 42 41 41 41 43 43 43 43 42 41 41 40 40 40 39 39 39 39 40 39 38 38 38 39
45 46 47 46 46 46 45 45 45 46 46 46 45 44 43 43 43 43 43 43 43 44 44 43 43 44 44 43 42 42 42 41 41 40 41 41 41 41 40 40 40 40 41
44 45 46 46 47 46 46 46 45 45 46 46 46 45 45 44 44 45 44 44 44 44 43 42 43 43 43 44 43 43 43 43 42 41 41 41 42 42 42 41 41 41 41
43 44 45 46 46 47 47 46 45 45 45 45 46 46 46 46 46 46 44 43 43 42 41 41 41 42 41 42 42 42 42 42 42 42 42 43 43 42 42 42 42 42 42
39 40 42 44 45 46 46 46 45 45 46 46 47 47 47 47 47 47 46 45 43 43 41 42 42 42 41 40 41 41 42 42 42 42 42 43 43 43 43 43 43 43 42
37 39 40 41 43 44 45 46 45 44 44 45 46 47 48 48 48 47 47 47 46 44 43 42 43 42 41 41 41 41 42 42 42 42 42 42 42 43 43 43 44 44 43
36 38 39 40 41 42 44 45 46 46 46 45 44 45 46 47 47 47 47 47 47 47 46 44 42 41 41 41 41 41 41 41 41 41 41 41 42 43 44 44 44 44 43
34 36 37 38 39 41 43 44 45 45 46 45 44 45 45 45 46 47 46 45 45 45 46 46 44 42 41 41 41 41 40 39 40 40 40 41 41 42 44 44 44 44 44
32 34 35 37 38 40 42 43 43 44 46 46 46 45 45 46 45 47 46 45 45 44 44 44 44 43 43 43 43 42 41 42 42 41 41 42 41 42 43 44 43 43 44
31 32 34 35 37 39 40 41 41 42 43 45 45 45 45 46 46 46 46 45 45 46 45 44 43 42 43 43 43 43 43 43 43 42 42 42 42 42 42 43 43 43 43
30 31 33 34 35 37 38 39 39 40 41 42 44 45 45 45 46 47 46 45 46 46 45 45 44 44 43 44 44 43 43 43 43 43 42 42 42 43 44 44 43 43 43
28 30 32 33 34 36 37 39 40 40 41 42 43 44 45 45 46 47 46 45 45 45 44 44 44 44 44 44 44 43 43 43 42 43 43 43 44 43 43 43 43 44 44
28 29 31 33 34 36 37 39 40 41 41 41 42 43 43 44 45 45 45 45 45 44 43 43 44 44 44 44 44 43 43 42 43 43 44 44 43 42 42 43 44 45 46
27 29 32 33 34 35 36 38 40 41 41 41 42 42 42 42 43 43 43 43 43 42 43 44 44 45 45 44 43 43 42 42 43 43 43 43 42 43 43 43 44 45 46
28 29 31 32 32 33 35 37 38 39 40 40 40 40 40 41 42 42 42 42 42 41 42 43 44 44 43 44 43 43 43 43 44 43 42 42 42 42 42 42 43 44 44
29 29 30 32 33 34 35 36 38 39 40 40 39 39 39 40 42 42 42 42 42 42 41 42 44 44 43 43 42 43 43 43 43 42 42 41 41 41 41 41 42 42 43
29 30 31 32 34 35 36 35 36 37 38 39 39 40 40 40 41 42 42 42 41 41 42 42 42 42 42 42 42 42 42 42 41 41 41 41 41 41 41 42 42 41 41
30 31 31 32 33 35 35 35 35 36 37 38 39 39 39 39 40 40 40 40 40 40 40 40 39 40 40 40 40 40 40 40 41 41 41 41 41 41 41 41 41 40 39
30 31 32 32 32 33 34 34 35 36 37 38 40 39 39 38 38 39 38 39 39 38 38 37 37 37 38 38 38 38 39 39 40 40 41 41 40 40 41 40 40 39 39
30 30 31 31 31 32 34 35 35 36 37 38 38 38 38 37 38 38 37 37 37 37 37 37 37 37 37 37 38 38 38 39 39 40 40 40 40 40 40 40 40 40 39
30 31 31 31 31 32 33 35 35 35 35 35 36 36 37 37 37 36 36 36 35 35 35 36 36 37 37 36 36 36 37 37 38 38 39 39 39 39 40 39 39 39 38
28 29 30 31 31 32 32 33 33 33 34 34 35 36 35 35 35 36 35 35 35 35 35 35 35 36 36 36 36 36 37 37 37 37 37 38 38 39 38 38 38 37 37
28 29 29 29 30 31 32 32 32 32 33 33 33 33 33 34 34 34 35 35 36 35 36 36 36 35 35 35 36 36 36 36 36 36 36 36 37 36 36 36 35 35 35
27 28 29 30 29 30 30 31 31 31 32 33 32 31 32 32 33 33 34 35 35 35 35 35 35 35 35 35 35 35 35 35 35 35 35 34 34 34 33 33 33 32 32
Wind_Direction
227 229 230 232 234 233 234 234 235 236 238 240 241 244 247 248 251 253 256 260 263 265 267 269 271 274 276 278 279 280 281 282 282 283 283 282 283 284 285 285 286 286 288
229 230 232 233 236 235 234 236 237 238 239 241 243 245 248 250 252 254 257 261 264 265 267 269 271 273 276 278 279 280 281 281 282 283 282 282 282 283 284 285 286 287 287
233 233 233 234 236 237 237 238 239 240 241 243 244 246 248 251 254 257 260 262 264 266 268 270 271 273 274 275 276 278 280 280 281 281 281 281 282 282 282 283 285 286 287
235 234 235 236 237 239 240 240 240 241 243 244 245 247 249 253 255 258 260 262 264 266 269 270 271 271 271 272 275 277 278 279 279 280 281 280 281 282 283 283 284 286 287
236 236 236 237 237 239 240 241 241 243 244 245 246 247 249 252 255 258 262 263 265 266 268 268 269 270 270 272 274 275 277 278 279 280 280 279 280 282 283 284 285 286 287
236 236 236 237 238 238 239 241 242 244 245 246 248 249 250 251 254 258 261 263 265 266 267 267 268 269 271 273 275 275 276 278 278 279 280 280 280 281 283 284 285 285 286
237 235 236 237 238 239 240 241 242 244 246 247 248 250 250 252 255 258 261 264 266 266 265 267 268 270 271 273 274 274 275 277 278 279 279 280 280 281 283 285 285 285 286
239 239 239 240 242 241 241 242 243 245 246 248 248 249 250 253 256 258 261 263 263 265 265 268 268 270 272 273 275 276 277 278 279 279 279 281 280 281 282 284 285 284 285
242 243 244 245 246 243 242 243 243 245 248 250 250 251 252 253 255 257 260 262 262 263 265 268 268 269 272 273 273 276 277 279 280 280 281 281 281 281 282 284 286 286 286
244 245 246 246 247 247 245 244 244 246 248 250 251 252 253 255 257 257 258 260 261 263 265 267 266 268 271 272 274 275 277 279 280 280 280 282 284 283 284 285 286 287 287
247 247 247 246 248 248 247 244 244 246 248 250 251 253 255 256 257 257 258 259 261 263 264 266 267 270 271 272 274 275 276 278 279 280 281 282 284 285 285 285 286 289 289
248 248 247 248 248 248 246 245 244 246 248 249 250 253 254 255 256 257 258 259 261 263 264 266 268 270 271 273 274 276 277 279 280 280 282 282 283 285 286 286 287 288 290
248 248 248 248 248 248 248 245 245 246 248 250 252 253 254 255 256 256 258 261 261 262 264 265 267 270 271 273 275 277 280 279 279 280 282 283 284 286 286 285 286 288 290
249 248 248 249 250 249 250 248 248 248 249 251 253 255 255 255 256 257 258 260 261 263 265 266 268 269 271 273 275 276 278 279 280 281 283 284 285 286 286 286 286 288 290
252 252 251 252 253 252 252 251 251 251 252 254 256 257 256 256 257 257 257 259 261 263 266 267 268 269 271 273 274 276 277 278 279 281 283 284 286 286 287 287 287 288 290
258 257 256 256 255 253 253 254 253 251 252 253 256 257 257 257 257 258 260 260 261 263 266 268 270 271 273 273 274 275 276 278 280 281 283 284 285 286 288 288 288 289 289
263 262 261 260 257 257 256 256 254 253 252 254 255 257 258 259 259 260 260 260 261 264 266 268 270 272 272 273 274 275 276 278 281 282 283 285 286 287 288 289 288 289 290
264 262 260 260 260 258 256 256 256 255 254 255 256 257 259 260 261 261 261 261 263 266 268 270 270 271 273 273 273 275 277 279 281 282 283 285 286 287 287 288 288 290 290
265 264 263 263 262 261 259 258 256 256 255 256 256 257 259 260 261 262 262 263 264 267 268 269 270 270 271 272 274 276 277 279 280 281 282 283 285 286 287 287 287 288 289
267 266 265 264 263 261 260 259 258 257 256 256 256 258 259 260 261 262 262 263 265 266 268 269 270 270 271 272 272 275 277 278 278 278 280 281 283 284 285 286 287 287 288
268 266 266 265 265 262 261 260 259 259 258 257 257 259 260 261 261 261 262 264 265 267 268 269 270 271 272 272 272 273 275 276 278 278 280 280 281 283 284 285 287 288 289
269 269 268 266 264 263 263 262 261 260 260 259 259 259 260 260 262 262 262 264 265 267 269 269 270 273 272 272 272 273 274 276 279 279 280 281 281 283 284 285 287 288 289
271 270 269 268 265 263 264 263 262 261 260 259 258 259 260 260 260 261 262 263 264 267 269 270 270 271 272 271 272 274 275 278 280 280 280 281 283 284 285 286 287 288 289
273 272 270 267 264 263 262 261 260 261 260 259 260 260 260 260 261 262 262 263 265 267 269 269 270 270 271 272 273 276 278 279 280 281 281 282 283 284 285 286 286 286 288
271 271 270 268 266 264 262 262 262 261 260 260 261 260 260 261 262 262 262 263 265 267 269 270 271 271 272 273 274 277 278 279 279 282 283 283 283 284 285 286 285 286 288
272 272 271 269 268 266 263 260 259 261 261 261 261 261 262 262 262 262 263 264 266 267 269 272 272 273 273 273 274 275 277 278 279 281 283 284 283 284 285 286 287 288 289
Height
5738 5742 5748 5753 5757 5761 5765 5770 5774 5778 5781 5785 5788 5791 5793 5795 5797 5798 5799 5800 5800 5801 5801 5801 5801 5801 5800 5799 5798 5797 5796 5795 5793 5792 5791 5790 5788 5787 5786 5784 5783 5781 5779
5729 5734 5740 5744 5749 5752 5757 5762 5766 5769 5773 5776 5779 5782 5785 5787 5788 5789 5790 5791 5792 5792 5792 5792 5792 5791 5791 5790 5789 5788 5787 5785 5784 5783 5782 5781 5780 5778 5777 5775 5774 5772 5770
5721 5726 5731 5736 5740 5744 5749 5752 5756 5760 5763 5767 5770 5773 5775 5778 5779 5781 5782 5782 5782 5782 5782 5783 5782 5782 5781 5780 5780 5778 5778 5776 5775 5773 5772 5771 5771 5770 5769 5767 5765 5763 5761
5712 5717 5722 5726 5730 5735 5739 5743 5746 5750 5753 5757 5760 5763 5766 5768 5770 5771 5772 5773 5773 5773 5772 5772 5772 5772 5771 5771 5770 5769 5768 5767 5765 5764 5762 5761 5760 5760 5759 5759 5756 5754 5752
5704 5708 5713 5717 5721 5725 5729 5732 5736 5740 5743 5746 5750 5753 5755 5758 5760 5761 5762 5763 5763 5763 5762 5761 5761 5761 5761 5760 5760 5759 5758 5756 5755 5754 5753 5751 5750 5749 5749 5748 5747 5745 5742
5694 5699 5703 5707 5711 5715 5719 5722 5726 5730 5733 5736 5739 5742 5745 5747 5749 5750 5750 5751 5752 5753 5752 5751 5751 5751 5750 5750 5749 5749 5747 5746 5745 5744 5743 5741 5741 5740 5738 5737 5736 5735 5732
5685 5689 5693 5698 5701 5705 5709 5713 5716 5720 5723 5726 5729 5731 5734 5736 5738 5739 5740 5741 5741 5742 5742 5742 5742 5741 5741 5740 5739 5738 5737 5736 5735 5734 5732 5731 5730 5729 5728 5726 5725 5724 5722
5677 5681 5685 5688 5692 5695 5699 5702 5706 5709 5712 5715 5718 5720 5723 5724 5726 5728 5729 5730 5730 5731 5731 5731 5732 5731 5730 5730 5730 5729 5727 5726 5725 5724 5722 5721 5720 5718 5717 5715 5714 5713 5712
5669 5672 5676 5679 5682 5685 5688 5691 5695 5699 5701 5704 5706 5709 5711 5713 5715 5716 5718 5718 5720 5720 5721 5721 5721 5721 5721 5720 5719 5718 5718 5717 5715 5714 5713 5711 5709 5708 5706 5704 5703 5701 5700
5661 5663 5666 5669 5672 5674 5678 5680 5684 5688 5691 5693 5696 5698 5700 5702 5704 5705 5707 5708 5709 5709 5710 5711 5711 5711 5711 5710 5709 5709 5708 5706 5706 5704 5703 5701 5699 5697 5695 5694 5692 5690 5688
5652 5655 5657 5660 5662 5665 5667 5670 5674 5677 5680 5683 5686 5688 5690 5691 5693 5694 5696 5697 5698 5699 5700 5700 5701 5701 5701 5700 5699 5699 5698 5697 5695 5694 5692 5691 5689 5687 5685 5683 5681 5679 5677
5644 5646 5648 5650 5653 5655 5657 5661 5664 5667 5669 5672 5674 5676 5678 5680 5682 5684 5685 5686 5687 5688 5689 5689 5690 5690 5690 5690 5689 5688 5687 5686 5685 5683 5682 5681 5679 5677 5675 5673 5670 5668 5665
5636 5637 5639 5641 5643 5645 5648 5651 5654 5657 5659 5662 5664 5666 5668 5669 5671 5673 5674 5675 5676 5677 5678 5678 5679 5679 5679 5679 5678 5677 5677 5675 5674 5673 5671 5670 5668 5666 5664 5662 5660 5657 5654
5628 5629 5631 5633 5634 5637 5638 5641 5644 5647 5649 5651 5653 5655 5657 5659 5660 5662 5663 5664 5666 5666 5667 5667 5668 5668 5668 5668 5667 5666 5666 5664 5663 5662 5661 5659 5657 5655 5653 5651 5648 5646 5643
5621 5622 5623 5624 5626 5627 5629 5631 5634 5636 5639 5641 5643 5644 5646 5648 5650 5651 5652 5653 5654 5655 5655 5656 5656 5657 5656 5656 5656 5655 5654 5653 5652 5651 5649 5648 5646 5643 5641 5639 5637 5634 5631
5613 5613 5615 5616 5617 5618 5620 5622 5623 5626 5628 5630 5632 5634 5636 5637 5639 5640 5641 5642 5643 5643 5644 5645 5645 5645 5645 5645 5644 5643 5643 5642 5641 5639 5638 5636 5634 5633 5630 5628 5625 5622 5619
5605 5606 5606 5607 5608 5609 5610 5612 5613 5615 5617 5619 5621 5623 5625 5626 5627 5628 5630 5631 5632 5632 5633 5633 5633 5634 5633 5633 5632 5632 5631 5631 5629 5628 5626 5625 5623 5621 5619 5616 5614 5611 5607
5598 5598 5598 5598 5599 5599 5600 5602 5603 5605 5607 5609 5610 5612 5614 5615 5616 5617 5619 5619 5620 5621 5622 5622 5622 5622 5622 5621 5621 5620 5619 5619 5618 5616 5615 5613 5612 5610 5608 5605 5603 5600 5596
5590 5590 5590 5590 5590 5590 5591 5591 5593 5594 5596 5598 5599 5601 5602 5604 5605 5606 5607 5608 5609 5610 5610 5610 5610 5610 5611 5610 5609 5609 5608 5607 5606 5605 5603 5602 5600 5599 5596 5594 5592 5589 5585
5582 5582 5581 5581 5581 5581 5581 5582 5583 5584 5586 5587 5589 5590 5591 5593 5594 5595 5596 5597 5598 5598 5599 5599 5599 5599 5599 5599 5598 5598 5597 5596 5595 5594 5593 5591 5589 5587 5585 5582 5580 5577 5574
5573 5573 5573 5572 5572 5572 5572 5572 5573 5574 5576 5577 5578 5579 5580 5581 5583 5584 5585 5586 5587 5587 5588 5588 5588 5588 5588 5587 5587 5586 5586 5585 5583 5583 5581 5580 5578 5576 5574 5571 5568 5566 5563
5564 5564 5564 5563 5563 5562 5563 5563 5564 5565 5565 5566 5567 5568 5569 5571 5572 5573 5574 5575 5576 5576 5577 5577 5577 5577 5577 5576 5576 5575 5574 5573 5572 5571 5570 5568 5566 5564 5562 5560 5557 5555 5552
5556 5555 5555 5554 5554 5553 5553 5554 5554 5554 5555 5556 5557 5558 5559 5560 5561 5563 5564 5565 5565 5566 5566 5566 5566 5566 5566 5565 5565 5564 5563 5562 5561 5560 5558 5556 5555 5553 5551 5548 5546 5544 5541
5548 5547 5546 5545 5545 5544 5544 5544 5544 5544 5545 5546 5547 5548 5549 5549 5550 5552 5553 5554 5555 5556 5556 5556 5556 5555 5555 5555 5554 5553 5553 5552 5550 5549 5547 5545 5544 5542 5540 5538 5536 5533 5531
5539 5538 5538 5537 5536 5535 5534 5534 5534 5535 5535 5536 5537 5537 5538 5539 5541 5542 5543 5544 5545 5546 5546 5546 5545 5545 5545 5544 5543 5543 5542 5541 5540 5538 5536 5535 5534 5532 5530 5528 5526 5524 5522
5531 5530 5529 5528 5527 5526 5525 5525 5525 5525 5526 5526 5527 5528 5529 5530 5531 5532 5532 5533 5534 5535 5535 5535 5535 5534 5534 5533 5533 5532 5531 5530 5529 5528 5526 5525 5524 5522 5521 5519 5517 5515 5513